NOAA 16 DEB, 41264

Orbit data source: Space-Track

NOAA 16 DEB, 41264 is space debris in SSO originally from a launch on Thu, 21 Sep 2000 UTC launched from the Air Force Western Test Range (AFWTR). Debris objects in space refer to the collection of defunct objects orbiting the Earth. Examples of debris include non-operational satellites, rocket bodies, and fragments generated from explosions, collisions, or faulty payload assembly.

Loading next visibility...
Identifier
41264, 2000-055FQ
Orbit
SSO
Country
Flag of USUS
Related business
Manufacturer
Unknown
Mission
Spacecraft
Bus & Motor
Unknown
Mass
Unknown
Launch date (UTC)
2000-09-21 (26 years ago)
Launch vehicle
Unknown
Launch site
Air Force Western Test Range (AFWTR)
Object type
Payload
Rocket body
Debris
Shape & HBR
Unknown shape, 0.1 m
Radar Cross Section
Medium (>0.1 m² and <1 m²)

Expand to show TLE details & history
Last TLE update: 3 days ago

TLE from 3 days ago
0 NOAA 16 DEB
1 41264U 00055FQ  26204.59475569  .00002277  00000-0  94081-3 0  9994
2 41264  98.6239 259.4086 0002133  55.2218 304.9164 14.27690390547028
Epoch: 2026-07-23T14:16Z
TLE epoch observation values (Epoch: 2026-07-23T14:16:26.891Z)
Latitude
0.00002°
Longitude
103.96306°
Altitude
801.513 km
Speed
7.453 km/s
True Right ascension
17h 17m 38s
True Declination
0° 00' 00"
Sunlit
Object was in full shadow at epoch
Visualization orbit readout
Latitude
Unknown
Longitude
Unknown
Altitude
Unknown
Speed
Unknown
Apparent Right ascension
Unknown
Apparent Declination
Unknown
Sunlit
N/A
Visualization observer readout
Local Sidereal Time
18:51:00
Azimuth
Unknown
Elevation
Unknown
Doppler factor
Unknown
Orbital elements
Apogee altitude
798.136 km
Perigee altitude
795.075 km
Semi-major axis
7,174.743 km
Eccentricity
0.00021
Inclination
98.6239°
RAAN
259.4086°
Arg. of periapsis
55.2218°
True anomaly
304.89635°
Mean anomaly
304.9164°
Eccentric anomaly
304.90638°
Mean motion
3.57136 °/min
Orbital period
100.8 mins
BSTAR
0.00094081
Loading maneuver chart data...
Computing Atmospheric mass density...

Documentation

Showing up to 5 results
|